This demonstration page uses our WeatherBlox Daily Observations layout. Learn more.

Left ArrowRight Arrow

Hourly Observations for January 31, 2017

Temp ( °F °C ) Dew Point ( °F °C ) Humidity (%) Winds ( mph kmh ) Pressure ( in mb ) Visibility ( mi km ) Precip ( " mm )
12:53 am 00:53 Clear 43 6.1 15 -9.4 32 32 Calm 30.02 1017 10 16 0.00 0.00
1:53 am 01:53 Clear 38 3.3 18 -7.8 44 44 NE 3 6 30.01 1016 10 16 0.00 0.00
2:53 am 02:53 Clear 32 0 20 -6.7 61 61 N 6 9 30.01 1016 10 16 0.00 0.00
3:53 am 03:53 Clear 31 -0.6 20 -6.7 64 64 N 3 6 30.01 1016 10 16 0.00 0.00
4:53 am 04:53 Clear 29 -1.7 20 -6.7 69 69 N 7 11 30.01 1016 10 16 0.00 0.00
5:53 am 05:53 Clear 28 -2.2 19 -7.2 69 69 N 6 9 30.01 1016 10 16 0.00 0.00
6:53 am 06:53 Clear 28 -2.2 19 -7.2 69 69 N 6 9 30.02 1017 10 16 0.00 0.00
7:53 am 07:53 Sunny 26 -3.3 20 -6.7 78 78 N 7 11 30.04 1017 10 16 0.00 0.00
8:53 am 08:53 Sunny 36 2.2 21 -6.1 55 55 Calm 30.03 1017 10 16 0.00 0.00
9:53 am 09:53 Sunny 48 8.9 19 -7.2 32 32 SSW 6 9 30.01 1016 10 16 0.00 0.00
10:53 am 10:53 Sunny 57 13.9 16 -8.9 20 20 W 10 17 30.01 1016 10 16 0.00 0.00
11:53 am 11:53 Sunny 64 17.8 17 -8.3 16 16 W 14 22 29.97 1015 10 16 0.00 0.00
12:53 pm 12:53 Sunny 70 21.1 18 -7.8 14 14 W 10 17 29.92 1013 10 16 0.00 0.00
1:53 pm 13:53 Sunny 73 22.8 18 -7.8 12 12 WNW 17 28 29.88 1012 10 16 0.00 0.00
2:53 pm 14:53 Sunny 75 23.9 17 -8.3 11 11 WNW 12 19 29.85 1011 10 16 0.00 0.00
3:53 pm 15:53 Sunny 76 24.4 16 -8.9 10 10 W 10 17 29.84 1010 10 16 0.00 0.00
4:53 pm 16:53 Sunny 75 23.9 15 -9.4 10 10 WSW 16 26 29.84 1011 10 16 0.00 0.00
5:53 pm 17:53 Sunny 71 21.7 14 -10 11 11 WSW 13 20 29.85 1011 10 16 0.00 0.00
6:53 pm 18:53 Clear 60 15.6 17 -8.3 19 19 WSW 10 17 29.89 1012 10 16 0.00 0.00
7:53 pm 19:53 Clear 58 14.4 16 -8.9 19 19 SW 14 22 29.89 1012 10 16 0.00 0.00
8:53 pm 20:53 Clear 56 13.3 15 -9.4 20 20 WSW 10 17 29.89 1012 10 16 0.00 0.00
9:53 pm 21:53 Clear 52 11.1 16 -8.9 24 24 WSW 13 20 29.88 1012 10 16 0.00 0.00
10:53 pm 22:53 Clear 51 10.6 17 -8.3 26 26 WSW 10 17 29.88 1012 10 16 0.00 0.00
11:53 pm 23:53 Clear 43 6.1 19 -7.2 38 38 W 8 13 29.88 1012 10 16 0.00 0.00

Powered by AerisWeather